Powrót do katalogu

MESAT-1

AktywnyKrótkofalarstwoSSO
NORAD 60209·PAYLOAD·🇺🇸 United States
Ta nazwa satelity nie została jeszcze potwierdzona przez oficjalne źródła.

Wystrzelony Jul 4, 2024 z Vandenberg Space Force Base

Loading…

Następne Przeloty (najbliższe 24 godziny)

TLE

ŚwieżeSource: Space-Track

Epoka: Sep 14, 2026, 14:24 UTC

1 60209U 24125G   26257.60035585  .00091177  00000-0  60109-3 0  9999
2 60209  97.2111 117.7888 0005893 221.9907 138.0907 15.75343986123583

Śledź MESAT-1 w czasie rzeczywistym z AllMySat

Download on the App Store